STARLINK-1707, 46359

Orbit data source: Space-Track

STARLINK-1707, 46359 is a payload satellite owned by SpaceX/Seattle (US) in LEO that was launched on Thu, 03 Sep 2020 UTC via an FALCON 9 launch vehicle from the Air Force Eastern Test Range (AFETR). Payload-class satellites include a variety of spacecraft equipped with specific instruments for various scientific and technological missions. These include communications satellites like Starlink; space stations such as the ISS; scientific satellites like the Hubble; Earth observation satellites from companies like Planet Labs, Umbra, and HawkEye 360; GPS; miniature CubeSats for education and research; and military/defense satellites.

Loading next visibility...
Identifier
46359, 2020-062AL
Orbit
LEO
Last TLE update
12 hours ago
Origin
Manufacturer
SpaceX/Seattle
Mission
Partially operational Commercial Communications
Bus & Motor
STARLINK, Unknown motor
Mass
260 kg wet, ~248 kg dry
Launch date (UTC)
2020-09-03 (5 years ago)
Launch vehicle
FALCON 9
Launch site
Air Force Eastern Test Range (AFETR)
Object type
Payload
Rocket body
Debris
Shape & HBR
Box + 1 Pan, 8.86 m
Radar Cross Section
13.562 m², Large (>1 m²)

Expand to show TLE details & history

TLE from 12 hours ago
0 STARLINK-1707
1 46359U 20062AL  25181.91592890  .00021986  00000-0  10734-2 0  9990
2 46359  53.0544  17.2940 0000884  91.3259 268.7836 15.18222182267054
Epoch: 2025-06-30T21:58Z
TLE epoch observation values (Epoch: 2025-06-30T21:58:56.256Z)
Latitude
-0.00008°
Longitude
128.34066°
Altitude
512.11 km
Speed
7.609 km/s
True Right ascension
01h 09m 10s
True Declination
0° 00' 00"
Sunlit
Object was in daylight at epoch
Visualization orbit readout
Latitude
-9.57279°
Longitude
-46.68052°
Altitude
513.861 km
Speed
7.607 km/s
Apparent Right ascension
11h 51m 23s
Apparent Declination
-27° 03' 22"
Sunlit
Object is in daylight
Visualization observer readout
Local Sidereal Time
21:31:20
Azimuth
283.127° WNW
Elevation
-58.354°
Doppler factor
1
Orbital elements
Apogee altitude
512.095 km
Perigee altitude
510.877 km
Semi-major axis
6,889.623 km
Eccentricity
0.00009
Inclination
53.0544°
RAAN
17.294°
Arg. of periapsis
91.3259°
True anomaly
Unknown
Mean anomaly
268.7836°
Eccentric anomaly
Unknown
Mean motion
3.79533 °/min
Orbital period
94.85 mins
BSTAR
0.0010734
Loading maneuver chart data...
Loading SW <> Apogee altitude chart data...
Loading historical data...
Loading historical data...
Loading historical data...
Loading historical data...
Loading historical data...
Loading historical data...
Loading historical data...

STARLINK-1707 Visibility forecast

Observer location: undefined°, undefined°

Span
Click to sort rows by Start time (UTC) header in descending order
Start Az.
Max El. time (UTC)
Max El. Az.
Max El.
End time (UTC)
End Az.
6 mins2025-07-01 15:31:58.748Z216.033° SW2025-07-01 15:34:58.748Z143.828° SSE41.825°2025-07-01 15:37:58.748Z58.21° ENE
5 mins2025-07-01 17:11:58.748Z292.308° WNW2025-07-01 17:13:58.748Z333.307° NNW21.846°2025-07-01 17:16:58.748Z27.707° NE
6 mins2025-07-01 22:10:58.748Z322.384° NNW2025-07-01 22:12:58.748Z10.691° NNE39.892°2025-07-01 22:16:58.748Z117.038° SE
|